SID,Date,Time,pH,Iron,Mn,Color,Turbidity,Analyst
27126,01/01/1999,"0720      ",6.11,1.35,0.560,70,1.76, 
27127,01/02/1999,"1030      ",6.11,1.29,0.700,66,1.51, 
27128,01/03/1999,"0815      ",6.34,1.30,0.640,80,2.82, 
27129,01/04/1999,"0730      ",6.23,1.29,0.610,75,1.76, 
27130,01/05/1999,"0710      ",6.18,1.25,0.470,74,1.44, 
27131,01/06/1999,"0715      ",6.23,1.11,0.560,73,1.24, 
27132,01/07/1999,"0710      ",6.20,1.23,0.240,80,2.08, 
27133,01/08/1999,"0830      ",6.19,1.25,0.550,84,1.77, 
27134,01/09/1999,"0915      ",6.19,1.23,0.550,80,1.50, 
27135,01/10/1999,"0705      ",6.37,1.21,0.610,79,1.46, 
27136,01/11/1999,"0710      ",6.16,1.17,0.260,79,1.36, 
27137,01/12/1999,"0705      ",6.17,1.21,0.590,78,1.30, 
27138,01/13/1999,"0715      ",6.18,1.16,0.420,79,1.06, 
27139,01/14/1999,"0715      ",6.22,1.19,0.560,75,1.35, 
27140,01/15/1999,"0730      ",6.20,1.17,0.390,78,1.25, 
27141,01/16/1999,"0945      ",6.17,1.19,0.420,77,1.27, 
27142,01/17/1999,"0930      ",5.96,1.12,0.440,74,0.98, 
27143,01/18/1999,"1130      ",6.04,1.32,0.680,71,2.39, 
27144,01/19/1999,"0720      ",6.14,1.53,0.510,80,3.62, 
27145,01/20/1999,"0715      ",6.17,1.05,0.600,65,1.36, 
27146,01/21/1999,"0725      ",6.20,1.05,0.460,66,1.14, 
27147,01/22/1999,"0850      ",5.83,1.05,0.540,67,1.27, 
27148,01/23/1999,"1045      ",5.94,1.08,0.470,66,1.28, 
27149,01/24/1999,"0900      ",6.05,1.07,0.400,74,1.60, 
27150,01/25/1999,"0710      ",5.98,1.02,0.440,68,1.27, 
27151,01/26/1999,"0715      ",6.08,1.02,0.400,70,1.24, 
27152,01/27/1999,"0720      ",6.28,1.02,0.290,71,1.04, 
27153,01/28/1999,"0735      ",6.24,1.00,0.450,38,1.19, 
27154,01/29/1999,"0845      ",6.16,1.00,0.520,79,1.16, 
27155,01/30/1999,"1100      ",6.02,1.03,0.470,80,1.16, 
27156,01/31/1999,"0920      ",6.01,0.98,0.330,82,1.12, 
27157,02/01/1999,"0715      ",6.06,1.13,0.360,83,1.27, 
27158,02/02/1999,"0715      ",5.90,0.99,0.260,78,1.25, 
27159,02/03/1999,"0720      ",6.00,0.95,0.300,77,1.20, 
27160,02/04/1999,"0720      ",6.05,0.97,0.300,73,1.23, 
27161,02/05/1999,"0753      ",6.15,0.92,0.300,76,1.00, 
27162,02/06/1999,"0930      ",6.00,0.96,0.380,80,1.07, 
27163,02/07/1999,"0940      ",6.11,0.93,0.350,78,1.06, 
27164,02/08/1999,"0705      ",6.16,0.91,0.370,83,0.99, 
27165,02/09/1999,"0715      ",6.06,0.90,0.250,77,1.07, 
27166,02/10/1999,"0700      ",6.39,0.96,0.250,83,0.81, 
27167,02/11/1999,"0750      ",6.18,0.90,0.300,80,0.98, 
27168,02/12/1999,"0820      ",6.29,0.86,0.220,82,0.92, 
27169,02/13/1999,"0710      ",6.12,0.94,0.280,88,0.98, 
27170,02/14/1999,"0745      ",6.48,1.04,0.210,90,1.20, 
27171,02/15/1999,"0915      ",6.34,1.09,0.230,91,2.05, 
27172,02/16/1999,"0715      ",6.10,1.02,0.310,85,1.19, 
27173,02/17/1999,"0700      ",6.50,0.95,0.170,93,1.03, 
27174,02/18/1999,"0705      ",6.31,1.02,0.370,95,0.99, 
27175,02/19/1999,"0750      ",6.05,0.95,0.350,90,0.90, 
27176,02/20/1999,"1030      ",6.04,0.97,0.340,85,0.99, 
27177,02/21/1999,"0930      ",6.58,1.01,0.230,84,1.14, 
27178,02/22/1999,"0700      ",6.10,1.02,0.390,83,1.67, 
27179,02/23/1999,"0715      ",6.28,0.99,0.310,87,1.02, 
27180,02/24/1999,"0700      ",6.34,0.96,0.360,90,0.86, 
27181,02/25/1999,"0750      ",6.26,0.95,0.200,90,0.69, 
27182,02/26/1999,"0825      ",6.18,0.94,0.240,90,1.06, 
27183,02/27/1999,"1030      ",6.13,0.98,0.280,84,1.08, 
27184,02/28/1999,"0915      ",6.07,0.84,0.170,94,1.45, 
27185,03/01/1999,"0710      ",6.09,0.95,0.450,78,0.88, 
27186,03/02/1999,"0710      ",5.95,0.95,0.320,68,0.99, 
27187,03/03/1999,"0730      ",5.98,0.87,0.280,69,0.95, 
27188,03/04/1999,"0655      ",5.95,0.86,0.250,68,0.89, 
27189,03/05/1999,"0748      ",5.89,0.86,0.360,66,0.79, 
27190,03/06/1999,"1000      ",5.94,0.90,0.250,67,0.79, 
27191,03/07/1999,"0700      ",5.94,0.86,0.370,62,0.65, 
27192,03/08/1999,"0710      ",6.33,0.84,0.270,55,0.70, 
27193,03/09/1999,"0715      ",6.08,0.86,0.220,70,0.82, 
27194,03/10/1999,"0710      ",6.00,0.85,0.320,63,0.76, 
27195,03/11/1999,"0700      ",6.21,0.78,0.290,62,0.76, 
27196,03/12/1999,"0715      ",6.51,0.82,0.340,72,0.85, 
27197,03/13/1999,"0730      ",6.03,0.83,0.310,70,0.72, 
27198,03/14/1999,"0735      ",6.07,0.82,0.200,69,0.73, 
27199,03/15/1999,"0710      ",6.12,0.88,0.230,70,0.74, 
27200,03/16/1999,"0715      ",6.19,0.84,0.330,62,0.79, 
27201,03/17/1999,"0700      ",6.24,0.88,0.360,61,1.06, 
27202,03/18/1999,"0650      ",6.22,0.87,0.270,62,1.16, 
27203,03/19/1999,"0750      ",5.91,0.84,0.340,59,1.00, 
27204,03/20/1999,"1000      ",6.12,0.86,0.320,57,0.90, 
27205,03/21/1999,"0830      ",6.37,0.83,0.370,57,0.89, 
27206,03/22/1999,"0715      ",6.40,0.87,0.230,59,0.83, 
27207,03/23/1999,"0705      ",6.07,0.83,0.340,61,0.70, 
27208,03/24/1999,"0715      ",6.20,0.84,0.360,61,0.87, 
27209,03/25/1999,"0705      ",6.50,0.86,0.280,64,1.17, 
27210,03/26/1999,"0720      ",6.33,0.84,0.290,46,1.27, 
27211,03/27/1999,"1110      ",6.20,0.89,0.340,70,1.20, 
27212,03/28/1999,"0850      ",6.24,0.84,0.350,71,1.09, 
27213,03/29/1999,"0700      ",6.09,0.93,0.200,70,1.27, 
27214,03/30/1999,"0710      ",6.24,0.87,0.270,68,1.28, 
27215,03/31/1999,"0755      ",6.25,0.82,0.260,67,0.90, 
27216,04/01/1999,"0710      ",6.10,0.86,0.280,70,0.96, 
27217,04/02/1999,"0750      ",5.93,0.86,0.390,70,0.96, 
27218,04/03/1999,"0700      ",6.02,0.87,0.340,71,0.85, 
27219,04/04/1999,"0730      ",6.15,0.88,0.290,74,1.01, 
27220,04/05/1999,"0700      ",6.14,0.86,0.210,77,0.88, 
27221,04/06/1999,"0715      ",6.05,0.88,0.290,75,0.89, 
27222,04/07/1999,"0705      ",5.98,0.93,0.270,76,0.91, 
27223,04/08/1999,"0715      ",6.04,0.92,0.280,72,0.91, 
27224,04/09/1999,"0820      ",6.13,0.96,0.210,72,1.29, 
27225,04/10/1999,"1015      ",6.13,0.93,0.470,70,0.89, 
27226,04/11/1999,"0850      ",6.36,0.92,0.320,74,0.87, 
27227,04/12/1999,"0705      ",6.08,1.02,0.330,73,1.09, 
27228,04/13/1999,"0715      ",6.29,0.96,0.300,74,0.93, 
27229,04/14/1999,"0700      ",6.24,1.13,0.290,75,1.33, 
27230,04/15/1999,"0700      ",6.16,0.84,0.210,69,0.94, 
27231,04/16/1999,"0810      ",6.32,0.98,0.400,65,0.88, 
27232,04/17/1999,"1145      ",6.29,0.97,0.160,62,1.05, 
27233,04/18/1999,"0710      ",6.13,0.95,0.400,61,0.73, 
27234,04/19/1999,"0730      ",5.99,0.67,0.370,63,0.52, 
27235,04/20/1999,"0700      ",6.18,1.01,0.280,58,0.99, 
27236,04/21/1999,"0710      ",6.22,1.02,0.170,55,0.77, 
27237,04/22/1999,"1225      ",5.98,1.00,0.460,58,0.99, 
27238,04/23/1999,"0820      ",6.24,0.99,0.430,58,1.03, 
27239,04/24/1999,"1100      ",6.17,0.99,0.410,57,0.98, 
27240,04/25/1999,"0800      ",6.43,0.95,0.450,57,0.99, 
27241,04/26/1999,"0700      ",6.13,1.00,0.570,60,1.01, 
27242,04/27/1999,"0750      ",6.38,1.06,0.410,65,1.76, 
27243,04/28/1999,"0830      ",6.49,0.37,0.150,66,0.68, 
27244,04/29/1999,"0900      ",6.21,0.35,0.060,66,0.58, 
27245,04/30/1999,"0830      ",6.01,0.37,0.230,60,0.60, 
27246,05/01/1999,"1030      ",6.12,0.32,0.030,58,0.52, 
27247,05/02/1999,"0930      ",6.15,0.33,0.190,59,0.54, 
27248,05/03/1999,"0800      ",6.39,0.61,0.230,76,2.20, 
27249,05/04/1999,"0735      ",6.32,0.47,0.120,68,2.38, 
27250,05/05/1999,"0840      ",6.19,0.48,0.130,76,2.59, 
27251,05/06/1999,"0710      ",6.19,0.36,0.160,70,0.88, 
27252,05/07/1999,"0840      ",6.28,0.55,0.100,96,3.06, 
27253,05/08/1999,"0945      ",6.10,0.42,0.120,82,1.14, 
27254,05/09/1999,"0850      ",6.03,0.41,0.060,79,0.80, 
27255,05/10/1999,"0700      ",6.00,0.40,0.060,82,0.74, 
27256,05/11/1999,"0715      ",6.02,0.46,0.040,84,0.91, 
27257,05/12/1999,"0710      ",6.14,0.56,0.130,90,1.98, 
27258,05/13/1999,"0715      ",6.09,0.52,0.100,86,0.77, 
27259,05/14/1999,"0810      ",6.08,0.50,0.070,84,0.74, 
27260,05/15/1999,"1030      ",6.15,0.50,0.130,78,0.78, 
27261,05/16/1999,"0930      ",6.07,0.51,0.100,85,0.77, 
27262,05/17/1999,"0900      ",6.04,0.46,0.130,80,0.64, 
27263,05/18/1999,"0610      ",5.94,0.48,0.090,79,0.71, 
27264,05/19/1999,"0600      ",6.09,0.44,0.100,77,0.63, 
27265,05/20/1999,"0605      ",6.03,0.46,0.160,78,0.79, 
27266,05/21/1999,"0830      ",6.18,0.44,0.140,72,0.67, 
27267,05/22/1999,"0715      ",6.06,0.48,0.080,69,0.80, 
27268,05/23/1999,"0705      ",6.07,0.45,0.090,75,0.76, 
27269,05/24/1999,"0700      ",6.19,0.46,0.060,73,0.82, 
27270,05/25/1999,"0655      ",6.05,0.50,0.140,80,0.98, 
27271,05/26/1999,"0655      ",6.04,0.46,0.180,89,0.87, 
27272,05/27/1999,"0840      ",5.97,0.48,0.060,112,0.95, 
27273,05/28/1999,"0940      ",6.05,0.52,0.200,113,0.91, 
27274,05/29/1999,"1100      ",6.12,0.54,0.060,114,0.86, 
27275,05/30/1999,"1030      ",6.20,0.54,0.160,112,0.76, 
27276,05/31/1999,"0815      ",6.12,0.57,0.130,110,0.76, 
27277,06/01/1999,"0715      ",6.21,1.32,0.080,157,4.55, 
27278,06/02/1999,"0850      ",5.95,0.60,0.200,111,0.75, 
27279,06/03/1999,"0715      ",6.00,0.59,0.090,115,0.81, 
27280,06/04/1999,"0720      ",6.10,0.54,0.080,104,0.82, 
27281,06/05/1999,"0930      ",6.15,0.55,0.090,104,0.76, 
27282,06/06/1999,"0720      ",6.12,0.51,0.080,105,0.72, 
27283,06/07/1999,"0725      ",6.29,0.46,0.090,101,0.65, 
27284,06/08/1999,"0725      ",6.01,0.34,0.200,96,1.13, 
27285,06/09/1999,"0710      ",5.98,0.43,0.110,95,2.15, 
27286,06/10/1999,"0750      ",6.22,0.40,0.100,71,0.89, 
27287,06/11/1999,"0945      ",6.26,0.39,0.070,96,1.14, 
27288,06/12/1999,"0900      ",6.15,0.44,0.180,66,0.69, 
27289,06/13/1999,"0700      ",6.36,0.34,0.060,64,0.66, 
27290,06/14/1999,"0710      ",6.26,0.39,0.190,74,1.19, 
27291,06/15/1999,"0910      ",6.28,0.41,0.130,85,1.01, 
27292,06/16/1999,"0750      ",6.42,0.40,0.140,78,1.21, 
27293,06/17/1999,"0945      ",6.40,0.39,0.180,79,1.36, 
27294,06/18/1999,"1045      ",6.20,0.34,0.250,49,0.69, 
27295,06/19/1999,"1030      ",6.12,0.34,0.230,46,0.72, 
27296,06/20/1999,"0725      ",6.05,0.41,0.210,51,0.85, 
27297,06/21/1999,"0705      ",6.03,0.22,0.240,65,0.91, 
27298,06/22/1999,"0705      ",5.83,0.47,0.170,58,0.84, 
27299,06/23/1999,"0710      ",6.38,0.36,0.270,41,0.70, 
27300,06/24/1999,"0710      ",6.32,0.35,0.240,13,0.60, 
27301,06/25/1999,"1215      ",5.97,0.35,0.360,40,0.69, 
27302,06/26/1999,"0955      ",6.03,0.38,0.190,28,0.87, 
27303,06/27/1999,"0740      ",5.96,0.39,0.150,39,0.91, 
27304,06/28/1999,"0705      ",6.04,0.37,0.260,38,0.81, 
27305,06/29/1999,"0715      ",5.97,0.41,0.160,42,1.28, 
27306,06/30/1999,"0730      ",5.85,0.40,0.190,38,0.92, 
27307,07/02/1999,"0800      ",5.78,0.59,0.220,53,2.23, 
27308,07/04/1999,"0930      ",5.89,1.62,0.620,38,0.81, 
27309,07/05/1999,"0815      ",6.04,1.14,0.420,62,0.91, 
27310,07/06/1999,"0705      ",5.96,1.12,0.550,37,0.51, 
27311,07/07/1999,"0705      ",5.91,0.39,0.320,43,0.92, 
27312,07/08/1999,"0810      ",5.80,0.31,0.120,41,0.58, 
27313,07/09/1999,"0855      ",5.80,1.03,0.420,43,0.67, 
27314,07/10/1999,"1130      ",6.03,1.10,0.570,54,0.87, 
27315,07/11/1999,"0900      ",6.04,3.30,0.350,237,3.46, 
27316,07/12/1999,"0715      ",5.97,1.74,0.560,64,1.61, 
27317,07/13/1999,"0705      ",5.81,1.37,0.520,56,1.41, 
27318,07/14/1999,"0700      ",5.99,1.22,0.740,51,1.22, 
27319,07/15/1999,"0815      ",6.17,1.11,0.690,50,1.10, 
27320,07/16/1999,"0705      ",5.90,1.24,0.720,52,1.42, 
27321,07/17/1999,"0800      ",5.95,1.24,0.500,53,1.22, 
27322,07/18/1999,"0730      ",5.98,1.25,0.700,50,1.24, 
27323,07/19/1999,"0705      ",5.66,1.24,0.780,46,1.28, 
27324,07/20/1999,"0705      ",5.51,1.31,0.730,53,1.73, 
27325,07/21/1999,"0720      ",5.92,1.18,0.850,52,1.67, 
27326,07/22/1999,"840       ",6.03,1.17,0.560,51,1.31, 
27327,07/23/1999,"0810      ",6.18,1.21,0.570,56,1.28, 
27328,07/24/1999,"1130      ",6.02,1.21,0.540,53,1.44, 
27329,07/25/1999,"0940      ",6.02,1.17,0.510,56,1.33, 
27330,07/26/1999,"0715      ",5.87,1.10,0.490,58,1.36, 
27331,07/27/1999,"0700      ",6.00,1.07,0.570,57,1.52, 
27332,07/28/1999,"700       ",5.80,1.41,0.340,67,2.12, 
27333,07/29/1999,"0750      ",6.00,1.19,0.600,68,1.72, 
27334,07/30/1999,"0805      ",5.99,1.18,0.480,65,1.58, 
27335,07/31/1999,"0835      ",5.89,1.23,0.520,66,1.55, 
27336,08/01/1999,"0700      ",5.91,1.42,0.720,68,1.30, 
27337,08/02/1999,"0730      ",6.03,1.36,0.740,48,1.51, 
27338,08/03/1999,"0710      ",6.01,1.36,0.680,60,1.45, 
27339,08/04/1999,"0720      ",5.85,1.33,0.650,59,1.35, 
27340,08/05/1999,"655       ",6.12,1.55,0.530,91,2.67, 
27341,08/06/1999,"0840      ",6.26,1.29,0.680,56,1.12, 
27342,08/07/1999,"0820      ",6.00,1.28,0.510,55,1.01, 
27343,08/08/1999,"0730      ",5.84,1.29,0.610,54,1.06, 
27344,08/09/1999,"710       ",5.98,1.26,0.640,47,0.88, 
27345,08/10/1999,"0700      ",5.75,1.26,0.690,49,1.12, 
27346,08/11/1999,"0710      ",6.00,1.25,0.760,46,0.90, 
27347,08/12/1999,"710       ",5.98,1.29,0.690,51,1.32, 
27348,08/13/1999,"830       ",5.99,1.26,0.720,48,1.25, 
27349,08/14/1999,"1015      ",5.90,1.22,0.540,47,1.36, 
27350,08/15/1999,"0745      ",5.95,1.31,0.670,48,1.32, 
27351,08/16/1999,"0815      ",5.88,1.35,0.650,46,1.44, 
27352,08/17/1999,"0710      ",6.04,1.37,0.630,49,1.30, 
27353,08/18/1999,"1130      ",5.99,1.24,0.680,35,1.00, 
27354,08/19/1999,"0730      ",6.03,1.29,0.500,45,1.25, 
27355,08/20/1999,"0830      ",6.00,1.28,0.670,43,1.19, 
27356,08/21/1999,"0825      ",5.88,1.27,0.680,46,1.13, 
27357,08/22/1999,"0915      ",6.12,1.50,0.680,56,2.10, 
27358,08/23/1999,"0700      ",6.06,1.52,0.780,46,1.85, 
27359,08/24/1999,"0715      ",6.07,1.36,0.790,46,1.39, 
27360,08/25/1999,"0800      ",6.00,1.41,0.750,51,1.82, 
27361,08/26/1999,"0825      ",5.98,1.40,0.830,42,1.46, 
27362,08/27/1999,"0900      ",5.71,1.40,0.810,38,1.20, 
27363,08/28/1999,"1000      ",5.85,1.40,0.830,42,1.35, 
27364,08/29/1999,"0830      ",5.81,1.40,0.800,40,1.29, 
27365,08/30/1999,"0820      ",6.03,1.40,0.870,41,1.36, 
27366,08/31/1999,"805       ",5.73,1.40,0.950,37,1.34, 
27367,09/01/1999,"0700      ",6.00,1.40,0.840,38,1.19, 
27368,09/02/1999,"0745      ",6.06,1.30,0.820,40,1.17, 
27369,09/03/1999,"0930      ",6.03,1.32,0.790,39,1.15, 
27370,09/04/1999,"0945      ",5.94,1.34,0.820,39,1.47, 
27371,09/05/1999,"0850      ",6.06,1.34,0.550,38,1.31, 
27372,09/06/1999,"1000      ",5.94,1.28,0.790,39,1.23, 
27373,09/07/1999,"0715      ",5.99,1.31,0.750,46,1.34, 
27374,09/08/1999,"0655      ",5.94,1.37,0.700,27,1.21, 
27375,09/09/1999,"0700      ",5.98,1.34,0.680,34,1.31, 
27376,09/10/1999,"0845      ",6.00,1.34,0.720,37,1.26, 
27377,09/11/1999,"0740      ",5.95,1.35,0.660,38,1.30, 
27378,09/12/1999,"0730      ",5.97,1.17,0.500,54,1.56, 
27379,09/13/1999,"0720      ",5.98,1.10,0.470,44,1.37, 
27380,09/14/1999,"0700      ",6.01,1.13,0.420,42,0.97, 
27381,09/15/1999,"0720      ",5.97,1.16,0.580,46,1.30, 
27382,09/16/1999,"1015      ",5.95,1.15,0.430,46,1.25, 
27383,09/17/1999,"1330      ",6.39,1.09,0.600,51,1.50, 
27384,09/18/1999,"1000      ",5.98,1.14,0.470,44,1.37, 
27385,09/19/1999,"1010      ",6.26,1.08,0.460,72,1.50, 
27386,09/20/1999,"715       ",6.17,1.13,0.390,80,1.45, 
27387,09/21/1999,"705       ",6.06,1.22,0.390,80,1.57, 
27388,09/22/1999,"700       ",6.05,1.32,0.400,69,1.62, 
27389,09/23/1999,"715       ",6.18,1.14,0.330,77,1.59, 
27390,09/24/1999,"705       ",6.15,1.13,0.350,71,1.65, 
27391,09/25/1999,"1100      ",6.09,1.11,0.280,77,1.53, 
27392,09/26/1999,"930       ",6.10,1.20,0.290,75,1.40, 
27393,09/27/1999,"705       ",6.04,1.17,0.330,79,1.47, 
27394,09/28/1999,"750       ",5.94,1.28,0.380,62,1.99, 
27395,09/29/1999,"655       ",5.94,1.18,0.460,73,1.45, 
27396,09/30/1999,"705       ",6.12,1.20,0.370,78,1.57, 
27397,10/01/1999,"815       ",5.99,1.48,0.570,78,1.47, 
27398,10/02/1999,"820       ",5.95,1.42,0.470,74,1.41, 
27399,10/03/1999,"715       ",5.86,1.48,0.500,76,1.86, 
27400,10/04/1999,"705       ",5.95,1.18,0.450,70,1.70, 
27401,10/05/1999,"720       ",6.20,1.14,0.460,73,1.83, 
27402,10/06/1999,"715       ",6.09,1.16,0.450,70,1.64, 
27403,10/07/1999,"805       ",6.03,1.12,0.300,95,2.19, 
27404,10/08/1999,"830       ",6.00,1.13,0.450,76,1.54, 
27405,10/09/1999,"900       ",6.15,1.13,0.470,77,1.47, 
27406,10/10/1999,"740       ",6.21,1.12,0.400,80,1.66, 
27407,10/11/1999,"730       ",6.34,1.15,0.500,78,1.73, 
27408,10/12/1999,"720       ",6.15,1.18,0.390,39,1.56, 
27409,10/13/1999,"840       ",6.19,1.27,0.330,72,1.62, 
27410,10/14/1999,"850       ",6.00,1.27,0.600,73,2.17, 
27411,10/15/1999,"930       ",6.00,1.27,0.550,70,1.75, 
27412,10/16/1999,"915       ",6.07,1.27,0.570,85,1.66, 
27413,10/17/1999,"930       ",6.08,1.27,0.560,92,1.76, 
27414,10/18/1999,"710       ",6.10,1.27,0.560,91,2.10, 
27415,10/19/1999,"705       ",6.15,1.23,0.620,89,1.90, 
27416,10/20/1999,"715       ",6.26,1.19,0.250,95,2.46, 
27417,10/21/1999,"700       ",6.10,1.09,0.480,94,1.74, 
27418,10/22/1999,"830       ",6.11,1.13,0.330,97,1.74, 
27419,10/23/1999,"1030      ",6.10,1.13,0.310,96,1.70, 
27420,10/24/1999,"1015      ",6.24,1.22,0.420,100,2.34, 
27421,10/25/1999,"620       ",6.09,1.14,0.430,107,1.95, 
27422,10/26/1999,"705       ",5.88,1.12,0.440,112,1.52, 
27423,10/27/1999,"705       ",6.28,1.09,0.490,115,1.57, 
27424,10/28/1999,"655       ",5.90,1.11,0.330,114,1.57, 
27425,10/29/1999,"0930      ",5.83,0.49,0.330,118,0.87, 
27426,10/30/1999,"1100      ",5.86,0.53,0.190,114,0.72, 
27427,10/31/1999,"1030      ",5.97,0.50,0.240,122,0.73, 
27428,11/01/1999,"705       ",6.05,0.49,0.160,123,0.80, 
27429,11/02/1999,"655       ",5.91,0.52,0.140,125,0.81, 
27430,11/03/1999,"720       ",6.04,0.51,0.120,123,0.63, 
27431,11/04/1999,"710       ",5.85,0.54,0.200,127,0.72, 
27432,11/05/1999,"830       ",5.95,0.53,0.130,136,0.69, 
27433,11/06/1999,"750       ",5.95,0.51,0.130,128,0.67, 
27434,11/07/1999,"920       ",5.90,0.52,0.100,130,0.51, 
27435,11/08/1999,"815       ",6.04,0.53,0.100,125,0.48, 
27436,11/09/1999,"715       ",5.97,0.52,0.200,125,0.62, 
27437,11/10/1999,"705       ",5.93,0.52,0.080,124,0.63, 
27438,11/11/1999,"1100      ",5.96,0.52,0.120,122,0.58, 
27439,11/12/1999,"830       ",6.11,0.52,0.220,124,0.61, 
27440,11/13/1999,"1045      ",6.04,0.52,0.190,123,0.63, 
27441,11/14/1999,"940       ",5.96,0.50,0.290,120,0.61, 
27442,11/15/1999,"705       ",6.08,0.49,0.340,110,0.66, 
27443,11/16/1999,"710       ",6.06,0.49,0.360,107,0.61, 
27444,11/17/1999,"705       ",6.04,0.47,0.350,115,0.59, 
27445,11/18/1999,"710       ",6.20,0.48,0.360,114,0.52, 
27446,11/19/1999,"900       ",6.09,0.48,0.350,114,0.55, 
27447,11/20/1999,"930       ",6.11,0.48,0.360,115,0.53, 
27448,11/21/1999,"940       ",6.01,0.48,0.210,108,0.62, 
27449,11/22/1999,"655       ",6.19,0.58,0.260,110,0.21, 
27450,11/23/1999,"710       ",6.13,0.49,0.220,106,0.63, 
27451,11/24/1999,"700       ",6.10,0.46,0.140,104,0.72, 
27452,11/25/1999,"745       ",5.99,0.48,0.180,105,0.61, 
27453,11/26/1999,"1000      ",5.92,0.49,0.180,100,0.67, 
27454,11/27/1999,"830       ",5.90,0.50,0.150,102,0.65, 
27455,11/28/1999,"710       ",5.92,0.49,0.200,104,0.74, 
27456,11/29/1999,"705       ",6.03,0.50,0.240,111,0.58, 
27457,11/30/1999,"715       ",6.04,0.46,0.230,113,0.74, 
27458,12/01/1999,"720       ",6.13,0.48,0.190,116,0.75, 
27459,12/02/1999,"730       ",5.96,0.48,0.140,113,0.73, 
27460,12/03/1999,"845       ",6.14,0.47,0.170,112,0.72, 
27461,12/04/1999,"830       ",6.10,0.47,0.150,112,0.70, 
27462,12/05/1999,"715       ",6.06,0.46,0.200,107,0.73, 
27463,12/06/1999,"730       ",6.13,0.40,0.460,101,0.55, 
27464,12/07/1999,"700       ",6.30,0.45,0.150,96,0.88, 
27465,12/08/1999,"655       ",6.22,0.42,0.220,91,0.68, 
27466,12/09/1999,"705       ",6.24,0.44,0.120,101,0.73, 
27467,12/10/1999,"830       ",5.95,0.48,0.060,115,0.79, 
27468,12/11/1999,"1000      ",5.96,0.46,0.130,113,0.74, 
27469,12/12/1999,"900       ",6.19,0.42,0.090,117,0.68, 
27470,12/13/1999,"740       ",6.15,0.42,0.160,114,0.62, 
27471,12/14/1999,"655       ",6.25,0.49,0.160,115,0.98, 
27472,12/15/1999,"700       ",6.08,0.43,0.060,106,0.70, 
27473,12/16/1999,"705       ",6.31,0.43,0.070,101,0.75, 
27474,12/17/1999,"830       ",5.82,0.45,0.300,99,0.60, 
27475,12/18/1999,"915       ",5.86,0.44,0.140,100,0.62, 
27476,12/19/1999,"930       ",6.17,0.41,0.080,99,0.60, 
27477,12/20/1999,"1400      ",6.15,0.41,0.080,99,0.60, 
27478,12/21/1999,"735       ",6.25,0.41,0.100,97,0.65, 
27479,12/22/1999,"1400      ",6.15,0.41,0.100,97,0.65, 
27480,12/23/1999,"850       ",6.15,0.43,0.060,94,0.73, 
27481,12/24/1999,"845       ",6.19,0.43,0.050,99,0.67, 
27482,12/25/1999,"1030      ",5.69,1.07,0.550,78,0.76, 
27483,12/26/1999,"715       ",6.16,0.99,0.510,80,0.85, 
27484,12/27/1999,"740       ",6.24,0.99,0.370,79,0.92, 
27485,12/28/1999,"705       ",6.04,0.99,0.470,76,0.98, 
27486,12/29/1999,"700       ",6.12,0.41,0.210,85,0.82, 
27487,12/30/1999,"1430      ",6.00,0.43,0.170,79,0.60, 
27488,12/31/1999,"945       ",6.35,0.42,0.160,82,0.77, 
Total Samples:, , ,363,363,363,363,363

Average Value:, , ,6.08,0.89,0.357,76.0,1.15
